Wind_Speed
35 34 34 33 32 32 31 31 30 29 28 27 26 25 24 24 23 22 22 21 20 21 21 20 20 18 16 15 14 13 13 13 13 12 13 15 18 20 22 23 22 22 22 22 21 20 19 18 17 15 15 13 12 11 10 9 8 7 6 5 4 4 5 5 4 4 4 4 4 4 4 4 5 7 8 9 11 12 13 14 16 16 17 18 18
35 34 34 34 33 32 31 31 30 30 29 28 27 26 26 25 25 24 23 22 20 20 20 20 20 18 16 14 13 12 12 12 12 11 11 13 16 18 21 22 22 22 23 22 22 21 20 20 18 17 17 16 15 14 13 12 12 11 9 8 7 7 8 8 7 7 6 6 6 6 7 6 6 8 9 9 11 12 12 14 15 16 17 18 18
34 34 35 35 34 33 32 31 31 31 30 29 28 27 26 26 25 25 24 22 21 20 20 21 20 19 17 15 14 13 12 12 12 11 10 11 13 15 17 19 20 22 23 22 22 22 22 21 20 19 19 19 18 17 16 16 15 14 13 12 11 11 11 11 11 10 9 9 9 9 10 10 9 10 11 11 12 13 13 14 15 16 17 19 19
32 34 35 35 34 34 34 33 33 32 31 30 28 27 27 26 26 25 24 23 22 20 20 21 21 20 18 17 16 14 12 12 11 11 10 10 11 11 13 15 16 19 21 22 23 23 23 22 21 21 22 22 21 20 19 19 19 18 16 16 15 14 15 15 15 14 14 13 12 12 14 14 13 13 14 14 14 15 15 15 16 17 18 19 20
32 33 34 34 35 35 35 34 34 32 31 30 29 28 27 27 26 25 24 24 22 21 21 21 22 21 19 18 17 15 13 12 11 10 10 10 10 10 11 11 12 14 16 18 21 22 23 23 23 23 24 24 23 22 22 22 21 21 20 19 18 18 19 19 19 19 18 17 15 15 17 18 17 17 17 18 18 18 18 17 17 18 19 21 21
32 32 33 34 35 35 35 35 34 32 31 30 30 29 28 28 27 26 25 24 23 22 22 21 22 21 19 19 18 16 16 15 13 12 12 12 11 11 11 11 11 11 12 13 15 17 20 22 23 25 26 26 24 24 24 24 24 24 23 22 22 22 23 23 23 24 23 22 20 19 19 20 21 21 20 21 21 21 20 19 19 20 22 23 23
30 31 31 32 34 34 35 35 34 33 32 31 30 30 29 28 28 26 25 25 24 24 23 22 21 21 20 20 19 18 18 17 16 15 15 14 13 13 12 12 11 11 11 12 12 13 14 16 19 22 25 26 26 26 27 27 26 26 25 25 25 26 26 26 27 27 27 27 26 24 23 23 24 24 23 25 25 23 23 23 23 23 25 26 26
30 30 30 31 32 32 33 33 33 33 33 32 32 31 30 30 29 27 27 26 25 25 25 24 22 21 21 21 20 20 20 20 18 18 17 16 15 15 14 14 13 13 13 13 14 14 14 15 16 18 20 22 24 26 27 28 29 29 28 28 28 29 29 29 30 30 30 31 30 29 28 28 27 26 26 28 28 26 26 29 29 27 28 29 29
28 29 30 30 30 30 30 31 32 32 33 33 33 32 31 31 30 29 28 27 26 25 25 25 25 24 23 22 22 22 22 20 19 18 18 17 17 16 16 16 16 16 16 16 17 17 17 18 18 18 18 19 20 22 24 25 28 29 29 30 31 31 31 32 32 33 33 33 33 31 32 32 30 30 30 30 31 30 31 33 33 31 31 33 32
26 26 26 26 26 27 28 29 30 31 31 32 31 31 32 32 31 30 30 28 27 26 25 26 26 25 25 24 23 23 23 21 19 18 18 17 17 17 17 17 17 17 18 18 19 19 20 21 21 21 21 21 21 22 22 23 25 26 26 28 30 31 32 33 34 34 35 35 35 34 35 35 33 32 33 33 33 34 35 36 36 35 36 37 36
27 26 24 22 22 23 24 26 27 28 29 29 30 30 30 31 31 31 30 30 29 27 27 26 26 25 26 25 25 25 24 21 19 19 18 18 18 19 18 18 19 19 19 20 20 21 22 23 23 23 23 23 23 22 22 23 24 25 25 26 28 29 31 32 32 33 34 35 35 35 37 37 34 34 35 34 34 35 36 38 39 39 39 40 40
29 27 25 23 23 23 22 23 24 25 26 27 27 28 28 29 29 30 30 30 29 28 27 26 25 25 25 25 25 25 24 21 20 19 18 18 18 18 19 18 19 19 19 20 20 21 22 23 23 23 23 23 23 23 23 23 24 25 26 27 28 29 30 31 31 31 32 33 34 35 36 36 35 34 33 33 34 36 37 38 39 40 41 42 43
29 28 26 25 26 25 24 24 24 23 24 25 25 27 27 28 27 27 28 28 28 29 28 26 25 25 25 25 25 24 23 21 20 19 18 17 17 18 18 18 18 17 16 16 15 15 15 16 17 17 16 17 19 19 20 20 21 23 25 27 28 29 30 31 31 32 32 34 35 35 34 34 35 34 31 31 34 35 36 37 38 40 42 44 44
28 27 27 27 28 27 27 27 26 25 24 24 25 26 27 27 26 26 26 27 27 28 27 26 26 25 25 25 24 24 22 20 19 18 17 17 16 17 17 17 16 15 13 12 12 11 11 12 13 12 12 14 15 15 16 17 18 21 23 25 26 26 28 29 30 30 31 33 35 35 34 33 34 34 32 33 35 36 36 37 38 41 43 45 46
28 27 27 28 29 29 28 28 27 26 25 25 25 25 25 25 26 25 25 25 25 25 26 26 26 25 25 25 25 24 22 21 19 19 17 17 17 17 18 17 16 15 14 14 13 13 14 15 15 15 16 17 17 18 19 20 21 23 24 25 26 26 27 29 29 30 31 33 34 35 34 33 33 34 33 35 37 37 37 38 41 44 46 48 48
28 27 27 28 28 28 29 29 29 28 27 27 26 25 24 24 24 25 25 24 24 24 24 25 25 25 26 26 26 25 23 21 20 19 18 18 19 19 19 18 18 17 16 16 16 16 17 18 19 19 20 20 21 22 23 24 26 27 27 27 28 29 29 30 32 33 33 35 36 36 36 35 35 36 36 37 38 39 38 40 43 47 48 49 50
27 27 26 26 26 27 28 29 30 30 29 29 28 27 25 24 23 23 24 24 24 23 23 23 24 25 26 26 26 25 23 21 21 20 20 20 21 21 20 20 20 19 18 18 19 19 20 21 22 22 23 23 23 24 26 28 29 29 29 29 30 29 29 32 34 34 35 36 37 38 38 38 39 40 39 40 42 42 42 44 46 47 49 50 50
25 25 24 23 23 24 26 27 29 30 31 31 31 30 28 26 24 24 24 24 24 23 23 23 24 25 27 27 27 26 24 22 22 22 21 21 22 22 21 21 22 21 21 21 21 22 23 23 24 25 25 25 25 26 28 30 30 30 30 31 30 28 29 32 34 34 34 36 37 38 39 40 40 41 42 42 44 44 46 49 49 49 52 54 52
24 24 23 21 20 20 21 23 25 28 30 32 32 32 31 30 28 26 25 24 24 24 24 24 24 25 27 27 27 27 25 23 23 22 22 22 22 22 23 23 24 23 23 24 24 25 25 25 25 26 27 27 28 28 29 30 30 30 31 32 30 28 29 32 34 33 34 35 36 38 39 39 41 42 42 43 44 45 48 51 52 52 55 57 56
24 24 23 22 19 17 17 18 21 24 26 28 29 30 31 32 32 31 29 27 26 26 25 25 24 25 27 28 28 27 26 24 24 23 23 23 24 24 26 26 26 26 26 26 27 27 26 26 27 27 27 28 28 28 29 29 30 30 31 32 31 29 30 33 34 34 35 36 37 38 39 39 40 41 41 42 43 45 48 50 51 52 55 56 56
27 26 26 25 23 20 17 17 19 21 22 23 25 27 28 29 31 33 33 32 31 29 28 27 26 26 28 29 29 29 28 27 26 26 26 27 28 29 29 29 29 29 29 29 29 28 28 28 28 28 28 28 27 28 28 29 30 31 31 31 30 30 31 33 34 35 37 37 38 39 39 39 41 41 41 40 40 41 43 45 47 49 52 54 55
28 27 26 25 24 23 20 18 18 20 20 21 23 25 26 27 29 31 33 35 36 35 32 31 30 29 30 31 31 31 30 30 30 29 29 30 31 31 31 31 31 31 31 30 29 29 29 29 29 29 29 29 29 30 30 31 32 32 31 31 31 30 32 33 34 36 38 39 39 40 40 40 41 42 42 41 41 42 44 45 47 49 51 55 57
21 21 21 20 21 20 19 18 17 18 19 21 23 25 25 26 28 29 31 33 36 37 37 36 35 34 33 33 33 33 33 33 33 33 33 33 33 32 32 31 32 32 31 31 31 31 30 30 31 31 31 31 31 32 32 32 32 32 31 32 32 32 33 34 34 36 37 38 39 40 40 41 42 44 45 44 43 43 46 49 51 53 54 57 59
17 18 18 18 18 18 17 16 16 15 15 17 20 24 25 27 28 29 30 31 33 35 36 37 38 38 38 37 36 36 36 36 36 35 35 35 34 33 33 33 33 33 32 32 32 32 32 32 32 32 33 33 33 33 32 32 32 32 32 33 33 33 34 35 36 37 37 37 38 40 41 42 44 47 50 49 46 45 47 51 54 56 57 59 59
18 19 20 20 19 19 18 17 16 15 15 14 16 18 22 26 29 30 31 31 32 33 33 35 37 38 39 40 40 39 39 39 38 37 36 36 35 34 34 34 34 34 33 33 33 33 34 34 33 33 34 33 33 33 33 32 32 32 33 33 33 33 35 37 39 39 38 38 39 41 43 44 45 48 51 52 52 52 53 54 55 56 58 60 60
22 22 22 22 22 22 21 20 19 18 17 17 16 16 17 20 25 29 31 32 33 33 33 33 34 36 37 39 40 40 41 40 39 38 37 37 36 36 35 35 35 35 34 34 35 35 35 34 34 34 34 34 34 34 33 32 32 32 33 34 34 34 36 37 37 37 38 40 41 44 46 47 48 51 53 54 56 57 58 58 59 58 59 60 61
27 26 25 25 25 24 23 23 22 21 20 19 19 18 17 17 18 22 26 30 32 33 33 34 34 34 36 37 38 39 40 40 39 39 39 38 37 37 37 36 36 36 35 35 35 35 34 34 34 34 34 33 33 33 32 31 31 31 32 32 33 33 33 34 35 37 39 41 43 46 48 51 52 53 55 56 58 59 60 61 62 62 60 61 63
30 29 29 28 27 26 26 25 25 24 23 22 21 21 20 19 18 18 20 23 27 29 32 34 34 35 36 36 38 39 39 39 38 38 38 38 37 37 37 37 36 36 36 35 35 34 34 33 32 32 33 33 32 31 31 30 29 29 28 29 30 31 33 34 36 39 41 43 46 48 51 54 56 56 57 59 60 61 62 63 63 63 61 60 62
33 32 31 30 30 29 28 27 26 25 25 24 23 23 22 22 22 21 21 21 21 23 27 30 33 36 37 38 38 38 38 38 38 38 38 37 37 37 37 36 36 36 35 35 35 34 33 33 32 32 32 32 30 29 27 26 26 26 27 28 30 32 34 36 38 41 43 46 49 51 54 56 58 58 59 61 61 61 61 62 63 62 60 58 59
34 34 33 33 32 31 30 28 28 28 28 27 26 25 25 24 25 25 24 23 22 21 22 25 28 33 36 38 39 38 38 37 37 37 37 37 37 37 37 36 36 35 35 34 34 33 32 32 32 31 29 27 26 24 24 24 25 26 28 29 31 33 35 38 40 43 45 48 51 53 55 57 58 59 60 61 62 61 61 61 61 60 59 58 57
32 33 34 35 35 34 33 32 31 31 31 30 29 28 27 26 26 27 27 27 26 25 24 24 26 28 32 34 35 36 36 37 37 37 37 37 37 36 36 35 35 34 33 32 31 29 28 28 27 26 24 23 23 23 24 26 26 27 29 30 33 35 38 40 43 45 48 50 52 54 55 56 57 59 60 61 62 62 61 60 60 61 61 61 61
29 30 31 33 34 35 35 35 34 34 33 32 30 29 28 28 28 28 28 29 29 29 28 27 27 27 28 28 28 29 30 32 33 34 35 35 35 34 33 33 32 31 30 28 26 24 23 23 23 23 22 22 24 25 26 27 28 29 31 32 35 37 40 42 45 47 49 51 53 54 55 56 58 59 59 60 61 61 61 60 60 61 63 64 64
27 28 28 29 29 31 32 33 34 34 33 32 30 29 29 28 28 28 29 29 30 31 31 30 29 27 25 24 23 24 25 25 26 29 31 31 30 30 29 28 27 25 23 22 23 23 23 23 23 23 23 24 25 26 27 29 30 31 33 35 37 39 41 44 46 48 51 53 54 55 56 56 57 58 58 58 58 59 60 61 60 61 61 61 61
25 27 28 28 28 28 28 30 31 32 31 30 30 29 29 29 29 28 29 29 30 31 31 31 30 27 25 25 24 25 26 26 27 29 29 28 26 25 23 21 21 20 21 23 24 25 24 23 23 24 25 26 27 28 29 30 31 33 35 38 39 41 43 46 48 50 52 52 53 53 54 54 55 55 56 56 56 57 58 58 57 57 57 57 57
24 26 27 28 28 27 27 27 28 29 29 29 29 29 29 29 28 28 28 28 29 29 29 29 29 27 26 27 28 30 30 28 26 26 27 26 25 22 21 21 22 23 24 25 26 24 24 24 25 25 26 27 28 29 30 32 33 35 37 39 41 43 45 47 49 50 50 50 50 51 51 51 52 52 53 53 52 52 52 51 50 49 50 50 51
21 23 26 27 28 28 27 27 27 27 28 28 29 29 29 28 27 27 26 26 26 25 24 24 24 24 23 24 27 29 28 24 22 22 21 22 23 23 24 24 25 24 25 25 24 24 25 25 26 27 28 29 29 30 32 33 35 37 38 40 42 44 46 47 48 48 48 48 48 48 48 49 48 48 48 46 44 44 45 44 43 43 43 44 45
17 19 22 24 26 27 27 27 27 27 27 28 28 28 28 27 26 26 25 24 23 21 20 20 19 19 19 18 20 22 23 22 23 24 23 23 24 26 26 26 24 24 24 24 24 25 26 27 28 28 29 30 30 32 33 35 36 37 39 41 42 44 45 46 47 47 46 45 46 46 45 45 44 42 41 39 38 38 38 38 39 39 40 41 42
16 17 18 20 22 24 25 26 26 27 27 26 26 26 25 24 23 23 23 23 22 20 20 20 19 19 18 17 17 20 22 23 25 26 26 26 27 27 26 25 24 24 24 25 26 27 27 28 28 29 29 30 31 33 34 35 37 38 39 40 41 43 44 44 44 44 44 43 43 42 41 40 39 38 37 36 35 35 34 34 35 36 37 38 40
16 17 17 18 19 21 23 24 24 24 23 22 22 21 20 19 19 19 20 21 22 21 22 23 23 23 23 23 24 26 27 25 24 25 26 26 26 25 24 24 24 24 25 26 27 27 28 28 29 29 30 31 32 33 35 36 37 38 38 39 40 41 41 42 41 41 41 40 40 39 38 37 37 36 36 35 34 34 33 32 31 32 33 34 36
18 18 18 18 19 20 22 23 23 22 23 23 23 22 21 22 22 23 23 24 25 25 26 27 27 28 28 28 28 29 28 27 25 25 24 24 23 23 23 24 24 25 26 27 27 28 28 28 29 30 31 32 33 35 36 36 36 36 37 37 38 39 39 39 39 38 38 38 38 37 37 37 36 35 35 35 34 33 32 31 30 30 30 30 30
20 20 19 19 20 21 22 23 24 24 25 26 26 25 26 27 27 28 29 28 28 28 29 30 30 29 29 28 28 28 27 26 25 23 22 22 22 22 23 23 24 25 26 27 27 27 28 29 30 31 32 33 35 36 36 35 35 35 35 36 36 36 36 36 35 35 35 36 36 37 37 37 36 36 35 35 34 33 32 31 30 29 28 26 24
21 20 19 19 20 22 23 25 25 25 26 28 27 27 28 28 29 30 31 30 28 28 28 28 28 28 28 27 27 27 26 24 22 21 21 22 22 22 23 24 25 25 26 27 27 28 28 29 30 32 33 35 36 36 35 34 34 34 34 34 33 33 32 32 32 32 33 33 34 36 36 37 37 37 37 37 36 35 34 33 33 32 31 30 30
19 18 18 18 20 22 24 25 25 24 26 28 28 28 29 30 30 29 29 28 28 28 28 28 27 27 26 25 24 23 22 21 21 22 23 23 24 24 25 25 26 26 27 27 28 29 29 30 32 34 35 36 35 34 33 33 33 34 33 32 31 30 29 28 28 28 29 30 32 33 34 35 35 36 37 37 38 37 37 37 37 36 36 37 39
18 17 18 18 20 22 25 26 26 25 25 26 25 25 26 28 28 28 27 26 26 26 26 25 24 24 24 23 22 21 21 22 23 23 24 24 25 25 25 25 26 26 27 28 29 30 31 32 34 35 35 34 33 31 31 32 33 33 32 31 30 28 27 26 26 25 26 27 29 30 31 31 32 33 33 34 35 35 36 36 36 36 36 36 37
20 19 19 19 20 21 22 23 23 22 21 20 21 22 22 23 23 24 24 24 23 23 22 21 20 21 21 20 20 20 21 22 23 23 24 24 24 24 24 25 26 26 27 29 30 32 33 33 34 34 33 32 31 30 31 32 33 32 31 30 29 28 27 26 25 24 24 25 26 27 28 29 30 30 31 31 31 30 31 31 31 31 31 30 29
24 25 24 23 21 20 19 20 19 17 16 17 17 18 19 19 19 19 19 19 20 20 20 19 19 20 20 20 21 21 22 23 23 24 24 24 24 25 25 26 27 28 29 31 32 33 33 33 33 32 31 31 31 31 32 32 32 31 30 30 29 28 28 26 25 25 24 24 24 25 26 27 28 28 28 29 29 28 27 26 26 26 26 25 23
24 25 25 24 22 20 20 20 18 17 19 20 20 19 20 20 21 21 21 21 21 20 19 19 20 21 22 22 23 24 24 24 25 25 25 26 26 27 27 28 29 30 31 31 32 32 32 31 31 31 31 32 32 32 32 32 31 30 29 29 29 29 28 27 26 26 25 25 24 24 25 26 27 27 26 27 28 28 26 24 23 23 23 24 23
23 21 20 19 18 16 16 15 14 15 19 20 20 20 21 21 21 21 21 21 21 21 21 21 22 23 23 24 25 26 26 26 27 27 27 28 29 30 30 31 31 31 31 31 31 31 30 30 30 30 31 32 33 32 31 31 30 29 29 29 29 29 28 28 27 27 26 26 25 25 26 26 26 26 26 25 26 27 26 24 22 20 20 20 21
18 17 16 15 15 15 15 15 16 17 18 18 17 18 18 18 19 20 21 21 22 23 23 22 23 23 24 25 26 26 27 27 28 28 29 30 30 31 31 31 31 31 31 31 31 31 31 30 30 30 30 31 32 32 30 29 29 29 30 30 29 29 29 28 28 27 27 27 26 25 26 26 25 25 26 26 25 25 26 25 23 21 19 17 16
12 12 12 13 13 15 17 17 17 18 17 17 17 18 18 19 20 21 22 22 23 22 22 23 23 24 25 26 26 27 28 28 29 30 30 30 30 30 30 30 30 30 30 30 31 31 31 31 31 30 29 29 29 30 30 29 29 30 31 30 29 30 30 30 29 28 28 28 27 26 25 25 25 25 26 26 25 24 25 25 25 23 21 18 15
11 13 14 14 15 16 18 18 18 18 18 19 19 20 20 21 22 22 23 23 23 23 23 24 24 25 26 27 28 29 29 30 30 30 30 29 29 29 28 28 28 29 29 29 30 30 30 30 30 30 28 26 28 31 32 30 29 30 31 30 30 31 32 31 30 29 28 28 28 27 25 25 25 25 25 25 24 23 23 24 24 24 23 21 18
Wind_Direction
209 207 206 205 205 206 206 207 207 208 210 213 214 214 214 214 215 217 219 219 219 222 225 228 233 236 234 229 226 223 218 216 217 214 209 206 207 206 209 211 211 212 214 212 211 211 212 213 214 217 219 218 219 223 228 232 232 230 232 233 236 247 254 257 265 277 285 297 307 311 316 323 327 326 327 328 326 327 330 330 330 332 333 333 335
212 209 208 207 206 206 207 207 208 209 210 212 213 214 214 213 213 215 217 217 217 218 220 223 229 232 228 222 217 210 203 202 205 203 197 198 203 206 210 213 214 216 218 218 218 219 220 221 222 224 227 227 227 229 232 236 240 242 244 244 245 251 257 258 256 257 265 277 283 292 299 302 306 311 312 313 314 315 318 319 319 321 322 323 326
216 213 211 209 207 207 207 207 209 210 211 212 212 213 213 212 213 215 216 217 217 215 214 218 223 225 222 218 214 208 200 196 196 193 189 190 196 202 209 214 216 218 221 222 224 227 228 228 230 232 235 235 235 235 235 238 241 242 245 248 250 253 259 262 261 256 255 260 267 278 283 283 287 294 296 298 301 302 304 307 309 310 312 313 316
219 217 214 211 209 208 208 208 209 211 211 212 212 212 212 213 214 215 217 219 217 214 212 213 218 220 218 217 215 211 205 201 197 190 187 187 189 193 200 207 212 217 221 224 227 230 231 232 235 239 241 241 241 241 241 242 244 244 244 247 250 253 257 261 262 261 258 255 258 268 274 275 277 281 284 288 290 292 295 298 302 305 307 307 309
220 220 217 215 213 211 210 209 210 211 212 213 212 212 214 215 216 216 217 219 219 216 213 213 215 216 215 214 214 214 213 213 211 202 197 198 198 198 199 201 205 210 215 220 225 230 233 235 237 240 243 244 245 247 247 248 249 250 250 250 251 253 255 257 260 261 260 257 255 258 266 271 274 275 278 280 281 284 288 291 297 303 304 303 304
219 221 219 218 216 214 212 211 211 212 212 213 214 214 216 217 218 218 218 219 220 219 217 215 215 215 214 214 214 214 216 219 220 218 217 218 218 217 216 213 213 214 215 218 223 228 233 236 238 241 244 246 247 250 252 253 254 255 255 256 256 257 257 258 261 262 263 263 260 258 260 266 271 273 276 277 278 279 282 287 293 299 298 297 299
218 220 220 220 219 217 216 214 213 213 213 214 215 216 218 219 219 219 219 220 220 221 220 219 217 216 215 215 215 216 219 222 223 225 226 229 231 232 234 233 234 234 234 235 237 237 236 235 237 240 244 247 249 251 254 256 258 258 259 260 260 260 261 262 263 265 266 268 267 265 264 264 266 269 273 276 277 278 282 286 288 290 291 292 294
217 220 222 223 221 219 219 218 218 217 216 216 216 217 219 220 221 221 221 222 222 222 222 221 220 219 218 218 218 219 223 223 224 226 229 233 235 237 241 244 247 247 248 250 252 252 250 246 242 242 244 246 249 251 254 256 259 259 260 262 263 263 264 265 266 267 269 270 271 272 271 270 269 270 272 275 277 281 285 285 284 284 287 289 290
216 218 220 221 220 219 220 221 222 221 220 219 218 219 220 221 222 223 224 224 224 224 224 222 221 221 220 220 221 223 226 225 225 228 231 235 239 242 245 247 250 252 253 254 255 255 256 254 252 250 249 248 248 249 251 254 257 258 260 262 264 265 265 266 267 269 270 271 272 273 274 273 274 274 274 276 278 281 282 282 282 284 285 285 285
215 216 216 217 217 219 220 221 223 223 223 223 222 222 223 223 224 225 226 227 227 226 226 224 222 222 222 222 223 226 229 228 228 231 235 239 243 246 248 249 252 254 255 256 256 256 257 257 257 256 255 252 250 249 251 253 256 258 260 261 263 264 265 266 267 269 270 271 272 273 274 274 275 276 276 277 278 279 279 280 282 283 282 281 281
216 216 215 214 214 216 218 220 222 224 225 225 225 226 226 227 227 228 229 229 229 229 228 226 224 223 224 224 225 228 231 231 232 235 238 242 246 249 252 254 255 255 255 255 255 255 256 256 256 257 257 258 257 257 257 257 259 262 263 264 265 266 267 268 270 271 272 273 274 274 275 276 278 278 279 280 280 280 279 279 280 280 280 280 279
217 216 215 215 216 218 220 221 223 224 225 227 227 228 229 229 229 229 230 230 230 230 230 229 226 225 226 226 226 229 232 234 236 238 239 242 247 252 255 256 256 256 255 254 253 252 253 255 256 258 259 261 263 263 263 262 263 265 266 266 267 268 270 272 273 275 276 276 277 276 278 280 282 281 282 284 283 280 278 277 277 278 278 277 277
218 216 216 218 220 222 224 226 227 227 227 228 229 230 230 230 230 229 230 230 230 231 232 231 229 227 227 227 227 230 232 234 236 237 239 242 247 252 255 256 255 253 251 250 250 249 251 254 257 259 261 261 262 263 265 265 266 267 267 267 267 269 271 273 274 275 277 278 278 279 280 282 283 283 285 284 280 278 277 276 276 276 276 275 275
221 219 218 220 222 223 225 227 229 230 230 231 231 232 232 231 231 230 230 230 230 231 232 232 231 229 228 228 229 230 231 231 232 234 236 239 242 245 246 246 245 245 244 246 248 251 254 258 260 262 262 262 262 264 267 268 268 268 269 270 272 273 275 276 276 277 278 279 280 282 282 282 283 284 283 280 277 276 276 277 277 276 275 275 274
226 223 221 222 223 224 226 229 230 230 231 232 233 232 232 232 231 231 230 230 230 230 230 231 231 229 228 229 229 228 227 227 229 230 231 230 230 231 232 235 239 242 247 253 258 263 266 267 268 269 268 268 269 270 270 270 270 270 270 273 274 276 276 277 277 277 278 279 280 284 285 284 284 283 280 277 276 275 275 275 276 276 276 277 277
229 227 224 224 224 225 227 230 231 232 232 233 234 233 232 232 232 232 231 230 229 229 228 228 228 226 227 229 228 225 224 226 226 225 220 217 218 223 228 234 241 247 251 258 264 268 270 271 272 271 270 270 272 273 273 274 274 274 275 276 276 277 279 278 276 276 277 278 280 282 283 282 281 279 278 277 276 276 275 274 275 276 276 278 281
229 228 225 224 225 226 228 230 232 233 233 233 233 234 233 233 233 232 232 231 230 229 227 227 227 226 226 228 227 225 224 224 223 217 211 210 215 223 230 237 245 250 255 259 263 265 265 267 268 268 268 269 271 272 273 273 275 276 278 280 281 283 284 281 278 277 278 278 278 279 279 278 277 276 276 276 276 276 276 275 275 275 274 276 281
229 229 226 224 225 227 229 231 232 233 234 234 234 234 234 233 233 233 233 232 232 231 229 228 227 226 226 226 227 227 226 223 219 213 210 214 221 228 235 243 249 254 259 262 264 265 264 264 265 266 268 268 269 270 270 271 275 279 281 284 286 289 288 285 283 282 281 279 277 276 276 275 275 275 275 275 275 276 277 277 277 276 275 275 278
232 233 231 229 228 228 228 230 232 233 234 234 235 234 234 234 234 234 234 233 232 231 230 229 226 224 226 227 229 230 228 222 219 218 218 223 230 236 243 249 253 258 262 264 265 264 264 264 265 266 268 270 271 272 272 274 279 282 284 286 289 292 290 287 286 285 284 284 283 281 280 278 277 275 275 276 276 277 277 278 278 278 278 278 279
234 235 236 237 237 234 229 226 227 229 230 231 232 233 234 233 234 234 234 234 234 232 230 229 226 224 225 228 230 232 230 226 224 226 229 233 239 244 249 254 257 261 264 265 265 264 264 265 266 268 270 272 274 277 279 280 283 285 286 288 293 296 293 288 288 288 287 288 289 288 287 286 283 281 280 278 278 278 279 281 282 282 283 284 284
234 234 235 237 240 243 239 227 222 221 222 225 227 229 230 232 233 234 234 234 234 233 232 230 228 226 227 229 231 233 235 234 233 234 237 240 243 247 251 256 260 264 266 266 267 267 268 270 272 273 275 277 280 283 284 285 285 287 288 290 293 294 291 288 289 289 289 291 291 290 291 290 289 289 288 286 285 285 285 286 288 290 292 293 293
234 233 233 235 239 244 243 232 221 216 215 218 221 223 225 227 229 232 233 234 235 234 234 233 231 230 230 231 234 236 239 241 242 243 245 247 249 251 254 259 263 266 268 269 270 273 275 278 280 282 284 287 288 288 288 288 288 289 291 291 291 289 287 286 287 288 290 292 292 292 292 292 292 293 294 295 296 294 291 291 293 294 294 294 296
232 233 235 237 239 242 243 237 230 223 216 215 216 219 221 224 226 228 229 232 234 234 234 235 235 235 235 235 237 239 241 244 246 248 250 252 254 256 259 262 265 267 269 271 274 277 280 282 284 286 288 289 288 288 289 288 288 289 290 289 288 288 287 287 288 289 290 291 292 293 294 294 295 295 296 296 297 296 294 294 294 292 291 291 293
239 238 239 240 241 244 246 246 244 239 231 224 219 218 219 220 223 226 227 228 231 233 234 235 236 237 238 239 241 242 244 246 248 250 252 254 256 258 260 263 265 268 270 273 276 279 282 283 285 286 286 287 287 288 288 287 287 288 287 287 289 291 293 293 293 292 292 292 293 294 295 296 295 293 293 295 295 292 291 291 290 289 289 289 289
245 244 243 242 243 246 247 248 248 246 245 243 234 226 223 221 222 224 227 228 230 231 233 234 235 237 239 241 242 244 246 248 249 250 252 254 256 259 261 264 267 270 272 275 278 280 280 281 282 283 284 286 286 286 286 286 286 287 287 288 291 293 293 292 291 292 294 295 295 295 296 296 294 292 292 294 295 293 291 290 289 288 288 288 288
242 243 243 240 240 242 244 245 247 247 247 248 246 241 235 229 225 225 227 230 232 232 233 233 235 236 238 240 242 244 245 247 249 250 253 255 257 260 262 265 268 271 273 275 276 277 278 279 281 282 283 284 284 284 284 284 285 286 287 288 288 288 287 288 290 293 295 296 297 298 298 297 296 293 292 293 294 294 293 293 292 291 291 291 290
241 242 243 240 237 237 238 241 245 247 248 250 251 251 249 244 238 233 231 232 234 235 236 236 236 236 238 239 241 243 244 246 248 250 252 255 257 260 263 265 267 269 271 272 273 275 277 278 279 280 280 281 282 283 284 284 284 285 286 286 287 289 291 292 294 294 295 297 298 299 299 298 296 294 293 293 293 293 293 293 292 292 293 293 292
244 241 242 243 239 236 236 238 242 247 250 252 254 257 258 258 256 251 242 238 237 238 240 241 240 239 239 239 240 242 244 246 248 250 253 255 258 260 262 264 266 268 269 271 272 273 274 275 276 277 279 280 282 283 283 284 284 285 286 287 290 292 293 294 295 296 298 299 300 300 300 299 297 295 295 294 294 294 294 294 295 295 295 295 293
247 241 241 243 243 242 241 242 245 249 255 258 259 260 261 262 263 261 256 250 245 242 242 243 244 243 242 242 242 243 245 247 249 251 254 256 258 260 262 264 265 267 269 270 271 272 272 273 274 275 276 278 280 281 281 282 284 286 288 290 292 293 295 297 298 300 300 300 300 300 299 298 298 298 297 296 296 297 297 298 299 299 299 299 297
248 244 242 243 245 245 246 247 249 251 256 260 263 264 264 263 264 265 264 261 256 252 250 249 248 247 247 247 247 248 248 249 250 252 253 255 257 259 261 263 265 267 268 269 269 270 270 271 272 273 275 277 279 281 283 285 287 289 290 292 294 296 298 299 299 300 299 299 299 298 298 298 299 299 299 300 300 301 302 303 303 304 304 303 302
248 246 244 244 245 246 246 247 248 251 253 257 261 263 264 264 264 264 265 266 264 261 258 256 253 252 252 252 253 253 253 252 253 253 254 255 257 259 261 263 265 265 265 266 267 267 268 269 271 273 276 279 281 283 285 286 288 289 290 292 294 296 298 298 299 299 299 298 298 298 299 300 301 301 302 303 304 305 306 307 307 308 308 307 306
247 247 247 247 247 247 247 247 248 250 253 255 257 260 261 262 262 262 263 264 265 265 264 262 260 258 257 257 258 260 259 257 257 257 257 257 258 259 260 261 262 262 262 264 266 266 267 269 272 275 278 280 281 283 284 286 288 290 292 294 296 297 299 299 299 300 300 300 300 301 301 302 303 303 304 305 305 306 308 308 308 308 307 306 306
245 246 247 248 248 248 248 248 249 250 252 253 254 254 255 256 258 259 260 260 261 263 264 264 264 262 257 253 255 260 261 258 256 258 259 258 257 257 257 259 262 264 265 267 268 267 267 270 273 276 278 280 281 284 285 287 289 292 294 296 297 298 300 300 301 302 302 302 302 303 303 303 304 304 304 305 306 307 307 307 307 306 305 304 304
242 243 245 246 247 248 248 248 248 249 249 249 249 249 251 253 254 256 256 257 258 259 260 261 262 260 253 246 243 247 251 250 248 251 254 255 253 253 255 258 260 260 260 261 263 265 267 270 273 276 278 281 283 285 286 289 291 293 295 297 299 301 302 303 303 303 302 302 302 302 303 303 304 304 305 306 306 306 306 306 306 305 305 304 302
240 241 243 243 244 245 246 246 246 246 246 246 245 246 248 250 251 252 254 255 256 256 256 257 258 257 251 244 239 240 244 249 251 253 254 255 252 248 246 248 250 252 255 259 263 267 270 272 275 277 279 281 283 284 287 289 292 294 297 299 302 304 304 304 303 302 302 302 303 303 303 304 304 305 305 306 307 307 307 308 307 306 306 305 303
241 241 243 244 244 244 245 245 246 246 245 245 244 244 246 248 249 251 252 253 253 253 253 254 255 254 250 243 240 240 241 244 250 251 248 249 252 252 251 251 253 255 258 261 265 268 270 272 274 276 278 280 282 285 288 291 294 297 300 302 303 303 303 302 302 302 302 303 303 304 305 305 305 305 306 307 309 311 311 312 312 313 313 313 312
246 246 246 246 246 246 245 245 246 246 246 245 244 243 244 245 246 246 247 246 245 245 246 248 250 253 253 250 247 244 237 231 233 236 234 236 245 252 255 256 257 257 260 263 266 269 271 272 274 276 279 281 285 287 290 293 296 299 301 302 302 302 302 302 302 303 304 305 305 306 307 307 308 309 311 314 316 317 317 317 318 320 323 324 324
255 253 253 253 252 250 248 246 245 245 245 244 243 243 242 241 242 242 240 239 237 235 236 239 242 248 250 247 245 248 245 236 234 238 241 244 248 252 255 258 260 261 264 267 268 269 271 273 275 278 281 284 287 290 293 295 297 298 299 301 302 302 303 303 304 306 307 308 309 310 311 313 314 317 320 322 323 323 322 321 321 324 329 332 334
265 259 257 259 259 257 255 252 248 245 246 246 245 244 241 238 237 236 233 233 234 234 235 237 238 238 238 234 235 244 250 248 245 248 252 253 254 256 258 261 263 264 265 266 268 269 271 273 276 279 283 286 289 292 294 295 296 297 299 301 302 303 303 305 306 308 310 312 314 317 318 320 322 324 326 328 328 328 327 324 323 325 331 338 342
276 266 258 256 258 258 257 255 249 242 240 241 241 240 236 234 235 235 234 234 235 236 238 239 238 237 239 240 243 248 253 255 258 261 263 261 261 262 262 262 263 264 265 266 268 270 273 276 279 283 286 289 291 292 293 293 295 298 300 302 302 303 305 307 309 312 315 318 322 324 326 327 328 329 331 333 334 334 334 332 329 330 335 341 344
283 275 265 257 254 254 254 253 249 241 235 233 234 234 235 234 235 235 235 235 235 235 238 241 242 242 245 248 252 256 260 264 268 269 267 265 265 265 265 265 265 266 267 269 271 274 277 281 284 286 288 290 291 291 292 294 297 300 301 302 303 306 308 310 313 317 321 324 328 330 331 332 333 334 336 338 340 341 341 340 340 340 339 340 342
284 278 270 261 255 254 253 250 246 240 235 233 231 232 234 236 238 239 239 239 238 239 241 243 244 246 249 253 259 264 268 269 267 264 262 261 261 262 263 264 265 267 269 272 275 278 281 283 286 288 290 290 291 292 294 298 300 300 301 302 304 307 310 314 317 321 324 328 330 332 334 336 338 339 341 343 345 346 347 348 348 347 344 343 347
279 276 270 262 256 255 255 253 246 239 237 236 235 234 235 236 238 241 243 243 244 246 248 251 252 254 258 262 265 266 264 261 259 258 258 259 260 261 263 265 267 269 272 275 276 279 282 285 287 289 289 290 291 294 297 299 298 298 298 301 304 307 310 314 318 321 325 327 329 332 335 338 341 343 345 347 348 349 351 352 352 351 350 349 351
275 272 268 262 256 255 256 255 250 245 243 243 242 241 242 242 243 245 248 250 252 254 255 256 259 262 264 264 261 258 256 256 258 260 262 263 265 267 269 270 271 273 274 276 279 281 284 286 287 288 289 290 293 295 296 296 295 295 296 298 301 304 308 312 315 318 320 323 327 331 334 337 340 344 347 348 349 350 352 353 353 352 351 349 348
279 277 272 264 258 255 255 253 250 247 247 246 245 245 247 247 245 245 246 250 254 254 254 255 259 261 260 257 254 255 256 258 261 263 265 267 268 269 270 271 272 274 276 279 281 283 285 286 286 287 288 289 291 291 291 290 290 291 293 295 299 301 304 306 309 311 314 319 323 327 330 333 337 342 346 348 348 349 352 354 355 353 350 347 345
281 280 277 268 258 248 244 244 242 236 230 227 226 228 231 233 236 240 245 250 252 253 253 254 255 254 252 250 251 253 255 258 261 264 267 268 268 268 268 270 272 274 277 279 281 282 283 284 284 285 286 287 287 287 287 286 287 288 290 293 296 298 300 301 303 306 309 313 317 321 324 327 331 337 343 347 347 346 348 352 356 356 355 352 348
278 276 273 265 256 244 235 231 228 222 219 221 224 228 233 239 245 251 256 257 255 253 251 250 249 249 249 250 252 253 256 259 262 264 265 265 266 266 267 269 272 274 276 278 280 281 282 282 283 284 284 284 284 283 283 284 284 286 287 290 293 295 297 298 300 303 306 309 312 315 318 322 326 330 337 343 345 344 342 344 348 352 354 355 354
259 260 260 257 255 252 244 237 234 231 229 230 233 236 240 243 246 249 252 253 254 254 254 253 252 253 253 254 255 257 259 261 262 263 264 265 267 269 271 273 276 277 279 279 279 279 279 279 280 280 281 281 281 281 282 283 284 284 285 287 289 292 294 296 297 300 302 304 306 309 312 316 320 325 329 335 341 343 341 338 338 342 345 347 350
229 234 239 243 249 253 250 246 247 247 242 237 237 238 240 243 246 248 250 252 254 255 256 256 256 257 258 259 261 262 264 266 268 270 272 273 275 277 279 281 282 283 284 284 284 284 282 281 280 279 279 280 280 280 279 280 282 283 284 285 287 289 291 292 293 295 297 298 300 303 307 310 314 319 323 327 332 337 338 336 334 335 335 335 338
204 215 228 237 246 251 248 241 241 244 245 243 243 243 243 244 245 247 248 250 251 252 254 256 258 259 262 264 266 267 269 272 274 275 277 279 280 281 283 283 284 285 285 286 286 286 285 285 283 282 282 284 285 283 280 278 279 280 281 282 285 287 288 288 289 289 290 292 294 296 300 304 308 313 317 320 324 329 333 332 330 330 330 327 325
232 241 243 241 242 247 248 244 242 244 246 246 246 246 245 245 245 245 246 248 249 251 253 255 257 259 261 264 266 268 271 273 275 276 278 279 280 281 281 282 282 283 283 283 283 283 283 283 282 282 282 282 281 281 280 279 278 279 281 282 282 282 283 283 285 285 285 286 289 291 295 298 302 305 309 312 316 321 324 324 324 325 325 321 316
Height
3169 3171 3173 3176 3178 3180 3182 3184 3187 3189 3191 3193 3196 3198 3200 3202 3204 3205 3207 3208 3210 3211 3212 3213 3214 3215 3217 3217 3218 3219 3219 3220 3221 3222 3222 3223 3225 3226 3227 3228 3230 3231 3232 3233 3234 3235 3236 3237 3238 3238 3239 3239 3240 3240 3241 3241 3240 3240 3240 3240 3240 3240 3240 3239 3239 3239 3238 3238 3238 3237 3237 3236 3236 3235 3234 3234 3233 3232 3231 3230 3229 3228 3227 3226 3224
3167 3170 3172 3174 3176 3178 3181 3183 3185 3187 3189 3191 3193 3196 3198 3200 3202 3203 3204 3206 3207 3209 3211 3212 3213 3214 3216 3217 3217 3218 3219 3219 3220 3221 3221 3222 3223 3225 3226 3227 3228 3229 3230 3232 3233 3234 3234 3236 3237 3237 3238 3238 3239 3239 3240 3240 3240 3240 3240 3239 3239 3239 3239 3238 3238 3238 3238 3238 3237 3236 3236 3235 3235 3234 3234 3233 3232 3231 3230 3230 3228 3227 3226 3225 3224
3166 3168 3170 3172 3174 3177 3179 3181 3183 3184 3186 3188 3191 3193 3196 3198 3199 3201 3203 3204 3206 3207 3209 3210 3212 3213 3214 3215 3216 3217 3218 3218 3219 3220 3221 3222 3222 3224 3225 3226 3227 3228 3229 3230 3231 3232 3233 3234 3235 3236 3236 3237 3237 3238 3238 3239 3239 3239 3239 3239 3239 3238 3238 3237 3237 3237 3237 3236 3236 3236 3235 3234 3234 3234 3233 3232 3232 3230 3230 3229 3228 3227 3226 3225 3224
3164 3166 3168 3170 3173 3175 3176 3178 3180 3181 3184 3186 3189 3191 3194 3196 3197 3199 3201 3202 3204 3206 3207 3208 3210 3211 3213 3214 3215 3216 3217 3218 3218 3219 3220 3221 3222 3223 3224 3224 3225 3226 3227 3228 3229 3230 3231 3232 3233 3234 3234 3235 3236 3236 3237 3237 3237 3237 3237 3238 3237 3237 3237 3236 3236 3235 3235 3235 3235 3234 3234 3233 3233 3232 3231 3231 3230 3229 3228 3228 3227 3226 3225 3223 3222
3162 3164 3166 3169 3170 3172 3174 3176 3177 3179 3182 3184 3186 3189 3191 3194 3196 3198 3199 3201 3203 3204 3205 3206 3208 3209 3211 3212 3214 3215 3216 3217 3217 3218 3219 3220 3221 3222 3223 3223 3224 3225 3226 3227 3227 3228 3229 3230 3231 3232 3232 3232 3233 3234 3234 3235 3235 3235 3236 3236 3236 3236 3235 3234 3234 3233 3233 3233 3233 3233 3232 3231 3231 3230 3230 3229 3228 3227 3226 3226 3225 3224 3223 3221 3220
3160 3162 3164 3166 3168 3170 3172 3174 3175 3178 3180 3182 3185 3187 3189 3191 3193 3195 3197 3199 3201 3202 3203 3205 3206 3208 3210 3211 3212 3213 3214 3215 3216 3217 3218 3219 3220 3221 3221 3222 3223 3224 3225 3225 3226 3226 3227 3228 3229 3229 3229 3230 3231 3231 3232 3232 3232 3232 3233 3233 3234 3233 3232 3232 3231 3231 3230 3230 3231 3230 3230 3229 3228 3228 3227 3226 3225 3225 3224 3224 3223 3222 3220 3219 3218
3158 3160 3162 3164 3166 3168 3170 3172 3174 3176 3178 3180 3183 3185 3187 3189 3191 3193 3195 3197 3199 3200 3201 3203 3205 3206 3208 3209 3210 3212 3213 3214 3215 3216 3217 3218 3218 3219 3220 3221 3222 3223 3223 3224 3225 3225 3226 3226 3227 3227 3227 3228 3228 3229 3229 3229 3229 3229 3230 3230 3230 3230 3229 3229 3229 3228 3228 3227 3227 3227 3227 3227 3226 3226 3225 3224 3223 3222 3222 3221 3220 3219 3218 3216 3215
3156 3158 3160 3162 3164 3166 3168 3171 3173 3175 3177 3178 3180 3182 3184 3186 3188 3191 3192 3194 3196 3198 3199 3201 3203 3204 3206 3207 3208 3209 3210 3211 3213 3214 3215 3216 3217 3218 3219 3219 3220 3221 3222 3222 3223 3223 3224 3224 3225 3225 3225 3226 3226 3226 3226 3226 3226 3226 3226 3227 3226 3226 3226 3226 3226 3225 3225 3224 3224 3224 3224 3223 3223 3223 3223 3222 3221 3221 3220 3218 3216 3216 3215 3213 3212
3154 3156 3158 3159 3162 3165 3167 3169 3171 3173 3175 3176 3178 3180 3181 3183 3186 3188 3189 3191 3194 3196 3197 3199 3200 3202 3203 3205 3206 3207 3208 3209 3211 3212 3213 3214 3215 3216 3217 3218 3218 3219 3220 3220 3220 3221 3221 3222 3222 3223 3223 3223 3223 3223 3223 3223 3223 3223 3223 3223 3223 3222 3222 3222 3222 3222 3221 3220 3220 3220 3219 3219 3220 3220 3220 3219 3218 3218 3217 3214 3212 3213 3211 3209 3208
3152 3154 3156 3158 3161 3163 3165 3167 3169 3171 3173 3174 3176 3178 3179 3181 3183 3184 3186 3189 3191 3193 3195 3196 3198 3199 3201 3202 3203 3204 3205 3206 3208 3210 3211 3213 3214 3214 3215 3216 3217 3217 3217 3218 3218 3218 3219 3219 3220 3220 3220 3220 3221 3221 3221 3221 3220 3220 3220 3220 3220 3219 3218 3218 3218 3218 3217 3216 3216 3216 3215 3214 3216 3216 3215 3215 3215 3214 3212 3210 3208 3208 3206 3204 3203
3150 3152 3155 3157 3160 3161 3163 3165 3167 3169 3171 3173 3174 3176 3177 3179 3180 3182 3184 3186 3188 3190 3192 3193 3195 3196 3198 3199 3201 3201 3202 3204 3206 3208 3209 3210 3211 3212 3213 3213 3214 3214 3215 3215 3215 3216 3216 3216 3217 3217 3217 3217 3218 3218 3218 3218 3218 3217 3217 3217 3216 3216 3215 3214 3214 3214 3213 3212 3212 3212 3210 3210 3212 3212 3211 3211 3211 3209 3208 3206 3204 3202 3201 3198 3197
3148 3151 3154 3156 3158 3160 3161 3163 3165 3167 3169 3171 3172 3174 3175 3176 3177 3179 3181 3183 3185 3187 3189 3191 3192 3194 3195 3196 3197 3198 3200 3202 3204 3205 3207 3208 3209 3209 3210 3210 3211 3211 3212 3212 3212 3213 3213 3213 3213 3214 3214 3215 3215 3215 3215 3215 3215 3214 3214 3214 3213 3212 3211 3211 3211 3211 3210 3209 3208 3207 3207 3207 3207 3208 3208 3207 3206 3204 3202 3201 3199 3197 3196 3193 3191
3147 3150 3153 3154 3156 3158 3160 3161 3163 3165 3167 3169 3170 3172 3173 3174 3175 3176 3178 3180 3182 3184 3186 3188 3190 3191 3192 3193 3194 3196 3197 3199 3201 3203 3204 3205 3206 3207 3207 3207 3207 3208 3208 3209 3210 3210 3210 3211 3211 3211 3212 3212 3212 3212 3212 3212 3212 3211 3211 3210 3209 3209 3209 3208 3208 3207 3207 3205 3204 3203 3204 3204 3203 3203 3204 3203 3200 3198 3196 3195 3194 3192 3189 3187 3185
3145 3149 3151 3152 3154 3156 3158 3159 3161 3163 3165 3166 3168 3169 3170 3171 3173 3174 3176 3177 3179 3181 3183 3185 3187 3188 3189 3190 3192 3193 3195 3197 3198 3200 3201 3202 3203 3204 3204 3204 3205 3205 3206 3207 3207 3208 3208 3209 3209 3209 3210 3210 3210 3210 3210 3210 3209 3208 3208 3207 3206 3206 3206 3205 3205 3204 3203 3202 3200 3200 3201 3201 3199 3199 3199 3197 3194 3192 3191 3190 3189 3186 3183 3181 3179
3143 3146 3149 3150 3152 3154 3155 3157 3159 3160 3162 3164 3165 3166 3168 3169 3171 3172 3173 3175 3176 3179 3181 3183 3184 3186 3187 3188 3189 3190 3192 3194 3196 3197 3198 3200 3200 3201 3201 3202 3202 3203 3203 3204 3205 3206 3206 3206 3207 3207 3207 3207 3208 3208 3208 3207 3206 3205 3205 3204 3204 3203 3202 3202 3202 3201 3200 3199 3197 3196 3197 3197 3195 3194 3193 3191 3189 3187 3186 3185 3183 3179 3176 3175 3174
3140 3143 3146 3148 3149 3151 3153 3154 3156 3158 3160 3161 3162 3164 3166 3167 3169 3170 3171 3173 3174 3176 3178 3180 3182 3183 3184 3186 3187 3188 3190 3192 3193 3194 3196 3197 3197 3198 3198 3199 3200 3200 3201 3202 3203 3203 3203 3204 3204 3204 3204 3205 3205 3205 3204 3204 3203 3202 3201 3201 3200 3200 3199 3199 3198 3198 3196 3195 3194 3193 3192 3192 3191 3189 3188 3186 3184 3182 3181 3179 3176 3173 3170 3168 3168
3138 3141 3143 3145 3147 3149 3150 3152 3154 3156 3157 3159 3160 3162 3164 3165 3166 3168 3169 3170 3172 3174 3176 3178 3179 3181 3182 3183 3184 3186 3188 3190 3191 3192 3193 3194 3195 3195 3196 3197 3197 3198 3199 3200 3200 3200 3201 3201 3201 3201 3201 3201 3202 3202 3201 3200 3199 3198 3197 3197 3196 3196 3195 3195 3194 3193 3193 3191 3190 3189 3187 3187 3186 3184 3183 3181 3179 3178 3175 3171 3169 3167 3163 3160 3160
3136 3138 3141 3143 3145 3147 3148 3150 3151 3153 3154 3156 3157 3159 3161 3163 3164 3165 3166 3168 3170 3172 3174 3175 3177 3178 3180 3181 3182 3184 3186 3187 3189 3190 3191 3192 3192 3193 3193 3194 3194 3195 3196 3197 3197 3198 3198 3198 3198 3198 3198 3198 3198 3198 3197 3196 3195 3194 3193 3193 3192 3191 3191 3190 3188 3188 3187 3186 3184 3183 3182 3181 3181 3179 3178 3177 3174 3173 3169 3165 3163 3161 3156 3153 3153
3134 3135 3138 3140 3142 3144 3146 3148 3149 3150 3151 3153 3155 3157 3158 3160 3162 3163 3164 3166 3168 3170 3171 3173 3174 3176 3177 3178 3180 3181 3183 3185 3186 3187 3189 3189 3190 3190 3191 3191 3191 3192 3193 3194 3194 3194 3194 3195 3195 3194 3194 3194 3194 3194 3193 3192 3191 3190 3189 3188 3187 3187 3186 3185 3183 3182 3181 3179 3178 3177 3176 3176 3175 3173 3173 3172 3170 3168 3163 3159 3157 3154 3149 3146 3146
3132 3133 3135 3137 3139 3141 3143 3145 3147 3148 3149 3150 3152 3153 3155 3157 3159 3160 3162 3164 3165 3167 3168 3170 3171 3173 3174 3175 3177 3178 3179 3182 3183 3184 3186 3186 3187 3187 3187 3187 3188 3189 3190 3190 3190 3191 3191 3191 3191 3191 3191 3190 3190 3189 3189 3188 3187 3186 3185 3183 3182 3182 3181 3179 3177 3176 3175 3174 3172 3171 3170 3169 3168 3167 3167 3166 3165 3163 3159 3155 3152 3148 3143 3140 3139
3130 3131 3132 3134 3135 3137 3140 3142 3143 3145 3146 3148 3149 3150 3152 3153 3155 3157 3159 3161 3162 3164 3165 3167 3169 3170 3171 3172 3173 3174 3176 3177 3179 3181 3182 3183 3183 3184 3184 3184 3185 3185 3186 3186 3186 3186 3187 3187 3187 3187 3187 3186 3186 3185 3184 3183 3182 3181 3180 3178 3178 3177 3176 3174 3172 3171 3169 3168 3167 3165 3164 3163 3161 3160 3160 3159 3159 3158 3155 3151 3148 3144 3139 3134 3132
3128 3129 3130 3132 3133 3135 3136 3138 3140 3141 3143 3145 3146 3147 3149 3150 3151 3153 3155 3157 3158 3160 3162 3164 3165 3166 3168 3169 3170 3171 3172 3173 3174 3176 3177 3178 3179 3179 3180 3181 3181 3181 3181 3181 3182 3182 3182 3182 3182 3182 3182 3181 3181 3180 3179 3178 3177 3176 3175 3174 3173 3172 3171 3169 3168 3166 3164 3163 3161 3160 3159 3157 3155 3154 3153 3154 3155 3153 3150 3147 3144 3141 3137 3131 3127
3125 3127 3128 3130 3131 3133 3134 3135 3136 3138 3140 3141 3143 3144 3146 3147 3148 3149 3151 3152 3154 3156 3158 3159 3161 3162 3164 3165 3166 3167 3168 3169 3170 3171 3172 3173 3174 3175 3176 3176 3177 3177 3177 3177 3177 3177 3178 3177 3177 3177 3177 3176 3176 3175 3174 3173 3172 3171 3171 3169 3168 3167 3166 3164 3163 3162 3160 3159 3156 3155 3154 3152 3150 3148 3147 3149 3151 3149 3145 3142 3139 3135 3131 3127 3123
3123 3124 3126 3127 3129 3130 3132 3133 3134 3135 3136 3138 3139 3141 3142 3144 3145 3146 3147 3149 3150 3151 3153 3155 3156 3158 3159 3161 3162 3163 3164 3165 3166 3167 3168 3169 3169 3170 3171 3172 3172 3172 3173 3173 3173 3173 3173 3173 3172 3172 3172 3171 3171 3171 3170 3169 3168 3167 3166 3164 3163 3162 3161 3160 3159 3158 3156 3154 3152 3151 3149 3148 3145 3142 3140 3140 3142 3142 3139 3136 3132 3128 3124 3120 3117
3121 3122 3124 3125 3127 3128 3129 3131 3132 3133 3134 3135 3136 3138 3139 3140 3142 3143 3144 3145 3146 3148 3149 3151 3152 3154 3155 3156 3158 3159 3160 3160 3161 3162 3163 3164 3165 3166 3166 3167 3168 3168 3168 3169 3169 3168 3168 3168 3168 3167 3167 3167 3166 3166 3165 3164 3163 3162 3161 3160 3159 3159 3157 3156 3154 3153 3151 3150 3148 3146 3145 3143 3140 3137 3133 3132 3133 3132 3131 3129 3126 3123 3119 3114 3111
3119 3120 3122 3123 3125 3126 3127 3129 3130 3131 3132 3132 3134 3135 3136 3138 3139 3140 3141 3143 3143 3144 3145 3147 3148 3149 3150 3152 3153 3154 3155 3156 3157 3158 3159 3160 3160 3161 3162 3163 3163 3163 3164 3164 3164 3164 3164 3163 3163 3162 3162 3161 3161 3160 3160 3160 3159 3158 3157 3156 3155 3155 3153 3151 3150 3148 3146 3145 3143 3141 3139 3137 3135 3131 3128 3126 3125 3124 3122 3120 3117 3115 3113 3109 3104
3116 3118 3119 3121 3122 3123 3125 3126 3127 3128 3129 3130 3131 3132 3134 3135 3136 3137 3139 3140 3140 3142 3142 3143 3144 3145 3146 3147 3148 3149 3150 3151 3152 3153 3154 3155 3156 3157 3157 3158 3158 3159 3159 3160 3159 3159 3158 3158 3158 3157 3157 3157 3156 3156 3155 3155 3154 3154 3153 3152 3151 3150 3149 3147 3145 3143 3141 3140 3138 3136 3134 3131 3128 3125 3122 3119 3117 3116 3115 3112 3108 3106 3106 3103 3096
3114 3115 3117 3118 3119 3121 3122 3123 3124 3125 3126 3128 3129 3130 3131 3133 3134 3135 3136 3137 3137 3138 3139 3140 3141 3142 3142 3143 3143 3144 3145 3147 3148 3149 3149 3150 3151 3152 3152 3153 3153 3154 3154 3154 3154 3154 3153 3153 3153 3153 3152 3152 3152 3151 3151 3150 3150 3150 3149 3148 3147 3146 3144 3143 3141 3139 3137 3135 3132 3130 3128 3125 3121 3119 3116 3112 3110 3108 3106 3103 3099 3097 3097 3095 3088
3110 3112 3113 3115 3116 3117 3119 3120 3121 3122 3124 3125 3126 3128 3129 3130 3131 3132 3133 3134 3135 3135 3136 3137 3138 3138 3138 3138 3139 3140 3141 3142 3143 3144 3145 3146 3146 3147 3148 3148 3149 3149 3149 3149 3149 3149 3149 3149 3148 3148 3148 3148 3147 3147 3147 3147 3146 3146 3145 3144 3143 3141 3140 3138 3136 3134 3132 3130 3127 3124 3121 3118 3114 3112 3108 3104 3102 3101 3098 3094 3091 3088 3087 3085 3080
3107 3109 3110 3111 3113 3114 3115 3117 3118 3120 3121 3122 3123 3124 3126 3127 3128 3128 3129 3130 3131 3132 3133 3133 3134 3134 3134 3135 3136 3137 3138 3139 3140 3140 3141 3142 3142 3143 3143 3143 3144 3144 3144 3144 3144 3144 3144 3144 3144 3144 3144 3144 3143 3143 3143 3142 3142 3142 3141 3140 3138 3137 3135 3133 3131 3129 3127 3124 3121 3118 3115 3111 3108 3104 3101 3096 3093 3092 3090 3086 3083 3079 3077 3074 3070
3104 3106 3107 3108 3109 3111 3112 3114 3115 3117 3118 3119 3120 3121 3122 3123 3124 3125 3125 3126 3126 3127 3129 3129 3130 3130 3130 3131 3132 3133 3134 3135 3135 3136 3137 3137 3138 3138 3139 3139 3139 3140 3140 3140 3140 3140 3140 3140 3140 3140 3140 3139 3139 3139 3139 3138 3138 3137 3136 3135 3134 3132 3130 3128 3126 3124 3121 3118 3115 3112 3108 3105 3101 3097 3094 3089 3085 3082 3080 3078 3074 3070 3066 3063 3060
3101 3102 3103 3105 3106 3108 3109 3111 3112 3113 3114 3116 3117 3117 3118 3119 3119 3120 3121 3122 3122 3123 3124 3125 3126 3127 3127 3128 3128 3129 3130 3130 3131 3132 3132 3133 3133 3134 3134 3135 3135 3135 3135 3136 3136 3136 3136 3136 3136 3136 3136 3136 3135 3135 3134 3134 3133 3132 3132 3131 3129 3127 3125 3123 3121 3118 3115 3112 3108 3105 3102 3098 3094 3091 3087 3083 3079 3075 3072 3069 3066 3062 3058 3054 3050
3098 3099 3100 3101 3103 3104 3105 3107 3108 3109 3110 3112 3113 3113 3114 3115 3115 3116 3117 3118 3118 3119 3120 3120 3121 3122 3123 3124 3125 3126 3126 3127 3128 3128 3128 3129 3129 3130 3130 3131 3131 3132 3132 3132 3132 3132 3132 3132 3132 3132 3132 3132 3131 3130 3130 3129 3128 3127 3126 3125 3123 3122 3120 3117 3115 3112 3109 3105 3102 3098 3095 3092 3088 3084 3081 3078 3074 3069 3065 3062 3058 3054 3050 3046 3042
3094 3095 3096 3098 3099 3100 3102 3103 3104 3105 3106 3107 3109 3109 3110 3111 3111 3112 3113 3113 3114 3115 3115 3116 3117 3118 3119 3120 3121 3122 3123 3124 3124 3125 3125 3125 3126 3126 3127 3128 3129 3129 3129 3129 3129 3128 3128 3128 3128 3128 3128 3127 3126 3126 3125 3124 3123 3122 3121 3119 3118 3116 3113 3111 3108 3105 3102 3100 3096 3093 3090 3086 3083 3079 3075 3072 3069 3064 3060 3056 3052 3048 3043 3039 3034
3091 3092 3093 3094 3095 3097 3098 3099 3100 3101 3102 3104 3105 3106 3106 3107 3108 3108 3109 3110 3110 3110 3111 3112 3113 3114 3115 3117 3118 3118 3119 3120 3121 3121 3122 3122 3122 3123 3124 3125 3125 3125 3125 3125 3125 3124 3124 3124 3124 3124 3123 3123 3122 3121 3120 3119 3118 3117 3115 3114 3111 3109 3107 3105 3102 3099 3097 3094 3091 3088 3085 3081 3078 3074 3070 3066 3063 3058 3054 3050 3046 3042 3038 3033 3028
3088 3089 3090 3091 3092 3093 3094 3095 3096 3097 3098 3100 3101 3102 3102 3103 3104 3105 3105 3106 3106 3107 3108 3108 3109 3110 3111 3112 3113 3114 3115 3117 3118 3118 3118 3119 3119 3120 3120 3120 3121 3121 3121 3121 3121 3121 3121 3120 3120 3120 3119 3119 3118 3117 3116 3115 3113 3112 3110 3108 3106 3104 3102 3099 3097 3094 3091 3089 3086 3083 3080 3077 3073 3069 3065 3062 3058 3054 3049 3044 3040 3036 3031 3026 3020
3085 3086 3087 3088 3089 3089 3091 3092 3093 3094 3095 3096 3097 3098 3099 3100 3100 3101 3102 3102 3103 3104 3105 3105 3106 3107 3108 3109 3111 3111 3112 3113 3114 3115 3115 3115 3115 3116 3116 3116 3117 3117 3117 3117 3117 3117 3117 3117 3116 3116 3115 3114 3113 3112 3111 3110 3108 3107 3105 3103 3101 3099 3096 3094 3091 3088 3086 3084 3081 3078 3075 3072 3068 3064 3060 3057 3053 3049 3044 3039 3034 3030 3026 3020 3015
3082 3084 3084 3085 3086 3086 3087 3088 3089 3090 3091 3092 3093 3094 3095 3096 3097 3098 3098 3099 3100 3101 3102 3102 3103 3104 3106 3107 3109 3109 3109 3110 3110 3111 3111 3111 3112 3112 3112 3113 3113 3114 3114 3114 3113 3113 3113 3113 3112 3111 3111 3110 3109 3108 3107 3105 3104 3102 3100 3098 3096 3094 3091 3089 3086 3083 3080 3078 3076 3073 3070 3067 3063 3059 3055 3052 3048 3044 3040 3035 3031 3026 3021 3016 3011
3079 3080 3081 3082 3083 3084 3084 3085 3086 3087 3088 3089 3090 3091 3092 3093 3094 3095 3095 3096 3097 3098 3098 3099 3100 3101 3102 3104 3105 3106 3106 3107 3107 3107 3107 3108 3108 3109 3109 3110 3110 3110 3110 3110 3109 3109 3109 3108 3108 3107 3107 3106 3105 3103 3102 3101 3099 3098 3096 3093 3091 3089 3087 3084 3081 3078 3076 3073 3070 3068 3065 3062 3058 3054 3051 3047 3043 3040 3036 3032 3028 3023 3019 3014 3009
3076 3077 3078 3079 3080 3080 3081 3082 3083 3084 3085 3086 3087 3088 3089 3090 3091 3092 3092 3093 3094 3095 3096 3097 3098 3099 3099 3100 3101 3102 3102 3103 3103 3104 3104 3105 3105 3106 3106 3106 3106 3106 3106 3106 3105 3105 3105 3104 3104 3103 3102 3101 3100 3099 3098 3096 3095 3093 3091 3089 3087 3084 3082 3080 3077 3074 3071 3069 3066 3063 3060 3057 3054 3050 3047 3043 3040 3036 3032 3028 3024 3020 3016 3013 3009
3072 3073 3074 3075 3076 3077 3078 3079 3080 3081 3082 3083 3084 3085 3086 3087 3088 3089 3089 3090 3091 3092 3093 3094 3096 3096 3097 3097 3098 3098 3099 3099 3100 3101 3101 3102 3103 3103 3103 3103 3103 3102 3102 3102 3101 3101 3101 3100 3099 3098 3097 3097 3096 3094 3093 3091 3089 3088 3086 3084 3082 3080 3078 3076 3073 3070 3068 3065 3062 3059 3056 3053 3050 3047 3043 3040 3036 3033 3029 3026 3022 3018 3015 3012 3010
3068 3069 3070 3071 3072 3073 3075 3076 3076 3078 3079 3080 3080 3082 3083 3084 3085 3086 3086 3087 3088 3090 3091 3092 3093 3094 3094 3094 3095 3095 3095 3096 3096 3097 3097 3098 3098 3098 3099 3098 3098 3098 3098 3098 3097 3097 3096 3096 3095 3094 3093 3092 3091 3090 3088 3086 3085 3083 3082 3080 3078 3076 3074 3072 3070 3067 3065 3062 3059 3056 3053 3050 3046 3043 3040 3036 3033 3029 3026 3022 3019 3015 3011 3007 3004
3064 3065 3066 3067 3068 3070 3071 3072 3073 3074 3075 3076 3077 3078 3080 3081 3082 3082 3083 3084 3085 3086 3087 3088 3089 3090 3090 3091 3091 3092 3092 3092 3092 3093 3093 3093 3094 3094 3094 3094 3094 3094 3094 3094 3094 3093 3093 3092 3091 3090 3089 3088 3086 3085 3083 3081 3080 3079 3078 3076 3075 3073 3071 3069 3067 3065 3062 3060 3058 3055 3052 3048 3045 3041 3037 3033 3030 3026 3022 3018 3015 3011 3006 3001 2998
3061 3062 3062 3063 3065 3066 3067 3068 3070 3071 3072 3073 3074 3075 3076 3077 3078 3079 3080 3080 3081 3083 3084 3085 3085 3086 3086 3087 3087 3088 3088 3088 3088 3089 3089 3090 3090 3091 3091 3091 3091 3091 3091 3090 3090 3089 3089 3088 3088 3086 3085 3083 3082 3080 3079 3077 3076 3075 3074 3072 3071 3070 3068 3066 3064 3062 3060 3058 3056 3053 3050 3048 3045 3042 3038 3034 3030 3025 3021 3017 3014 3010 3006 3002 3000
3058 3059 3059 3060 3061 3062 3063 3065 3066 3068 3069 3070 3072 3073 3074 3074 3075 3076 3077 3078 3079 3080 3081 3081 3082 3082 3083 3083 3084 3084 3084 3085 3085 3086 3086 3087 3087 3087 3088 3087 3087 3087 3087 3086 3086 3085 3085 3084 3083 3082 3080 3079 3077 3076 3075 3074 3073 3071 3070 3069 3067 3066 3065 3063 3062 3060 3058 3056 3054 3051 3049 3047 3044 3041 3038 3035 3032 3028 3024 3020 3016 3013 3009 3006 3004
3057 3057 3058 3058 3058 3059 3060 3061 3063 3065 3067 3069 3070 3071 3072 3072 3073 3073 3074 3075 3076 3077 3078 3078 3079 3079 3080 3081 3081 3081 3082 3082 3083 3083 3083 3084 3084 3084 3084 3084 3083 3083 3082 3082 3081 3080 3080 3079 3078 3076 3075 3074 3073 3072 3072 3071 3070 3068 3067 3065 3064 3063 3061 3060 3058 3057 3055 3053 3051 3049 3047 3045 3043 3040 3038 3035 3033 3030 3027 3023 3020 3017 3013 3011 3009
3056 3056 3057 3058 3058 3058 3057 3057 3059 3062 3065 3066 3067 3068 3069 3070 3071 3071 3072 3073 3074 3075 3075 3076 3076 3077 3077 3078 3078 3079 3079 3080 3080 3080 3080 3080 3080 3080 3080 3080 3079 3079 3078 3077 3076 3075 3075 3074 3073 3072 3071 3070 3069 3068 3068 3067 3066 3065 3063 3062 3060 3059 3058 3056 3055 3053 3051 3050 3048 3047 3045 3043 3041 3039 3037 3035 3033 3030 3028 3025 3023 3020 3016 3014 3012
3054 3055 3056 3058 3060 3060 3059 3059 3060 3061 3062 3063 3064 3066 3067 3068 3068 3069 3070 3070 3071 3072 3073 3073 3074 3074 3075 3075 3075 3076 3076 3076 3076 3076 3076 3076 3076 3076 3075 3075 3074 3074 3073 3072 3072 3071 3070 3069 3069 3068 3067 3066 3065 3064 3063 3062 3062 3061 3060 3059 3057 3056 3054 3053 3051 3050 3049 3047 3045 3044 3042 3041 3039 3037 3035 3034 3032 3030 3028 3026 3024 3021 3018 3016 3014
3051 3052 3054 3056 3058 3059 3059 3060 3060 3060 3060 3061 3062 3063 3064 3065 3066 3066 3067 3067 3068 3069 3069 3070 3070 3071 3071 3071 3072 3072 3072 3072 3072 3071 3071 3071 3071 3070 3070 3069 3069 3068 3067 3067 3066 3065 3065 3064 3064 3063 3062 3061 3060 3059 3059 3058 3057 3057 3056 3055 3054 3052 3051 3050 3048 3047 3046 3044 3043 3041 3040 3038 3037 3035 3034 3032 3031 3029 3028 3026 3024 3021 3019 3017 3016
3049 3051 3053 3054 3055 3056 3057 3059 3059 3060 3060 3060 3061 3061 3061 3062 3063 3063 3064 3064 3065 3065 3066 3066 3066 3067 3067 3067 3067 3067 3067 3067 3066 3066 3066 3066 3065 3065 3065 3064 3064 3063 3063 3062 3061 3061 3060 3059 3059 3058 3057 3056 3055 3055 3054 3053 3053 3052 3052 3051 3050 3049 3047 3046 3045 3044 3043 3041 3040 3038 3037 3035 3034 3033 3031 3030 3029 3028 3026 3025 3023 3021 3019 3017 3016
3048 3050 3051 3052 3052 3053 3055 3057 3058 3058 3058 3058 3059 3059 3059 3060 3060 3060 3061 3061 3061 3062 3062 3062 3062 3062 3063 3062 3062 3062 3062 3062 3062 3061 3061 3061 3061 3060 3060 3060 3059 3059 3058 3058 3057 3056 3055 3055 3054 3053 3053 3052 3051 3050 3050 3049 3049 3048 3047 3046 3045 3044 3043 3042 3041 3040 3039 3038 3037 3035 3034 3032 3031 3030 3029 3028 3027 3026 3025 3023 3021 3020 3018 3016 3015